Charlottesville, VA (22901)

6:11 PM EST on February 09, 2016 (GMT -0500)
Montvue | | Change Station
CLOSE
Current Station
Personal Weather Station
Location: Charlottesville, VA
Elevation: 571 ft
Nearby Weather Stations

Elev 571 ft 38.07 °N, 78.51 °W | Updated 30 seconds ago

Overcast
Overcast
37.4 °F
Feels Like 37 °F
N
0.0
Wind Variable Wind from SW
Gusts 0.0 mph

Today
High -- | Low -- °F
--% Chance of Precip.
Yesterday
High -- | Low -- °F
Precip. -- in
Pressure 29.62 in
Visibility 10.0 miles
Clouds Overcast 6500 ft
Windchill 37 °F
Dew Point 10 °F
Humidity 32%
Rainfall 0.00 in
Snow Depth Not available.
7:11 AM 5:45 PM
New Moon, 2% visible
METAR KCHO 092253Z VRB05KT 10SM OVC065 03/M08 A2961 RMK AO2 SLP029 T00331083
Pressure 29.62 in
Visibility 10.0 miles
Clouds Overcast 6500 ft
Windchill 37 °F
Dew Point 10 °F
Humidity 32%
Rainfall 0.00 in
Snow Depth Not available.
7:11 AM 5:45 PM
New Moon, 2% visible
METAR KCHO 092253Z VRB05KT 10SM OVC065 03/M08 A2961 RMK AO2 SLP029 T00331083
Winter Storm Nacio, the third winter storm in five days to affect the Northeast, is bringing pockets of locally heavy snow to parts of the Ohio Valley, Appalachians and mid-Atlantic states Tuesday. Winter storm warnings are posted for parts of southern Pennsylvania, southern Ohio and the higher peaks of the Appalachians. Winter weather advisories, generally for lighter snow accumulations, stretch from northeast Alabama and far north Georgia to southern Connecticut and Long Island.

10-Day Weather Forecast

Almanac

Astronomy

Feb. 09, 2016 Rise Set
Actual Time
Civil Twilight
Nautical Twilight
Astronomical Twilight
Moon
Length of Visible Light
Length of Day
Tomorrow will be .
, % of the Moon is Illuminated

Today's Extremes

State Highs State Lows

Community

WunderPhotos

Upload Photos

1,891,728 photos uploaded!

WunderBlog® & News

Nearby

Air Quality

  Air Quality AQ Index Pollutant
Not available.

Snow Depth

Station Depth Elevation

Earthquake Activity

City Distance Mag. Time & Date
Minimum magnitude displayed is 2.5.

Coastal Water Temperatures

Place Temperature

Stations

Nearby Weather Stations

Station Location Temp. Windchill Dew Point Humidity Wind Precip. Elev Updated Type
                   

Watches & Warnings

There are currently no watches in effect.